Location: Namasale
(1.5000°N, 32.6167°E)
Time: 19:38:03
(UTC+00:00)

Envisat - Pass Details

Date: 12 December 2021
Orbit: 764 x 766 km, 98.2° (Epoch: 25 January)

Event Time Altitude Azimuth Distance (km) Brightness Sun altitude
Rises 02:25:40 0° 11° (N) 3,214 6.1 -18.4°
Reaches altitude 10° 02:27:57 10° 11° (N) 2,290 5.3 -17.9°
Maximum altitude 02:33:00 86° 284° (WNW) 769 2.9 -16.7°
Drops below altitude 10° 02:38:05 10° 193° (SSW) 2,298 5.6 -15.5°
Sets 02:40:23 0° 193° (SSW) 3,225 6.4 -15.0°
